Kelso-Longview, WA
on Tuesday, February 19, 2013

Tuesday
Previous Day Next Day
Daily Summary
 ActualAverage (KSPB)Record (KSPB)
Temperature
Mean Temperature °F °F  
Max Temperature 53°F °F 55°F (2000)
Min Temperature 32°F °F 17°F (2006)
Degree Days
Heating Degree Days 22    
Month to date heating degree days  
Since 1 July heating degree days  
Cooling Degree Days 0    
Month to date cooling degree days  
Year to date cooling degree days  
Moisture
Dew Point 35°F   
Average Humidity 75    
Maximum Humidity 93    
Minimum Humidity 47    
Precipitation
Precipitation 0.03 in in 0.22 in (2002)
Month to date precipitation  
Year to date precipitation  
Wind
Wind Speed 4 mph   
Max Wind Speed 10 mph   
Max Gust Speed mph   
Visibility 10 miles   
Events     

Key: T is trace of precipitation, MM is missing value
Source: NWS Daily Summary
Time(PST)TemperatureDew PointHumidity Pressure Visibility Wind DirectionWind SpeedGust SpeedPrecipitationEvents Conditions
12:15 AM 41.0°F 35.6°F 81% 29.74 in 10.0 miles ESE 3.5 mph - N/A   Overcast
12:35 AM 41.0°F 35.6°F 81% 29.74 in 10.0 miles ESE 6.9 mph - N/A   Overcast
12:55 AM 41.0°F 35.6°F 81% 29.73 in 10.0 miles ESE 4.6 mph - N/A   Overcast
1:15 AM 41.0°F 35.6°F 81% 29.73 in 10.0 miles SSE 5.8 mph - N/A   Overcast
1:35 AM 41.0°F 35.6°F 81% 29.73 in 10.0 miles ESE 4.6 mph - 0.01 in   Overcast
1:55 AM 41.0°F 35.6°F 81% 29.73 in 10.0 miles Calm Calm - 0.01 in   Overcast
2:15 AM 39.2°F 35.6°F 87% 29.73 in 10.0 miles SSE 3.5 mph - N/A   Overcast
2:35 AM 41.0°F 35.6°F 81% 29.72 in 10.0 miles ESE 4.6 mph - 0.01 in   Overcast
2:55 AM 41.0°F 35.6°F 81% 29.72 in 10.0 miles ESE 4.6 mph - 0.02 in   Overcast
3:55 AM 39.2°F 35.6°F 87% 29.72 in 10.0 miles SE 3.5 mph - N/A   Overcast
4:15 AM 39.2°F 35.6°F 87% 29.72 in 10.0 miles Calm Calm - N/A   Overcast
4:35 AM 39.2°F 35.6°F 87% 29.72 in 10.0 miles NNE 3.5 mph - N/A   Overcast
4:55 AM 39.2°F 35.6°F 87% 29.72 in 10.0 miles Calm Calm - N/A   Overcast
5:15 AM 39.2°F 35.6°F 87% 29.73 in 10.0 miles Calm Calm - N/A   Overcast
5:35 AM 39.2°F 35.6°F 87% 29.73 in 10.0 miles Calm Calm - N/A   Overcast
5:55 AM 39.2°F 35.6°F 87% 29.74 in 10.0 miles Calm Calm - N/A   Overcast
6:15 AM 39.2°F 35.6°F 87% 29.74 in 10.0 miles Calm Calm - N/A   Overcast
6:35 AM 39.2°F 35.6°F 87% 29.75 in 10.0 miles Calm Calm - N/A   Overcast
6:55 AM 39.2°F 35.6°F 87% 29.75 in 10.0 miles Calm Calm - N/A   Overcast
7:15 AM 39.2°F 35.6°F 87% 29.76 in 10.0 miles SE 4.6 mph - N/A   Overcast
7:35 AM 39.2°F 35.6°F 87% 29.76 in 10.0 miles Calm Calm - N/A   Overcast
7:55 AM 39.2°F 35.6°F 87% 29.76 in 10.0 miles Calm Calm - N/A   Overcast
8:15 AM 39.2°F 37.4°F 93% 29.77 in 10.0 miles Calm Calm - N/A   Overcast
8:35 AM 41.0°F 37.4°F 87% 29.78 in 10.0 miles NW 3.5 mph - N/A   Mostly Cloudy
8:55 AM 42.8°F 37.4°F 81% 29.77 in 10.0 miles NNW 5.8 mph - N/A   Scattered Clouds
9:15 AM 42.8°F 37.4°F 81% 29.78 in 10.0 miles NW 5.8 mph - N/A   Clear
9:35 AM 42.8°F 37.4°F 81% 29.78 in 10.0 miles NW 5.8 mph - N/A   Clear
10:15 AM 44.6°F 37.4°F 76% 29.79 in 10.0 miles NNW 9.2 mph - N/A   Scattered Clouds
10:35 AM 46.4°F 37.4°F 71% 29.79 in 10.0 miles NNW 9.2 mph - N/A   Clear
10:55 AM 46.4°F 37.4°F 71% 29.79 in 10.0 miles NW 9.2 mph - N/A   Clear
11:15 AM 46.4°F 37.4°F 71% 29.79 in 10.0 miles NW 8.1 mph - N/A   Clear
11:35 AM 48.2°F 37.4°F 66% 29.79 in 10.0 miles NW 9.2 mph - N/A   Clear
11:55 AM 48.2°F 37.4°F 66% 29.80 in 10.0 miles WNW 5.8 mph - N/A   Clear
12:15 PM 50.0°F 37.4°F 62% 29.80 in 10.0 miles WNW 6.9 mph - N/A   Clear
12:35 PM 50.0°F 35.6°F 58% 29.80 in 10.0 miles NNW 8.1 mph - N/A   Clear
12:55 PM 51.8°F 37.4°F 58% 29.80 in 10.0 miles NW 8.1 mph - N/A   Clear
1:15 PM 51.8°F 35.6°F 54% 29.81 in 10.0 miles NW 5.8 mph - N/A   Clear
1:35 PM 51.8°F 35.6°F 54% 29.81 in 10.0 miles NW 6.9 mph - N/A   Clear
1:55 PM 51.8°F 35.6°F 54% 29.81 in 10.0 miles WNW 5.8 mph - N/A   Clear
2:15 PM 53.6°F 33.8°F 47% 29.81 in 10.0 miles North 8.1 mph - N/A   Clear
2:35 PM 51.8°F 32.0°F 47% 29.81 in 10.0 miles NW 6.9 mph - N/A   Clear
2:55 PM 51.8°F 33.8°F 50% 29.82 in 10.0 miles NW 10.4 mph - N/A   Partly Cloudy
3:15 PM 51.8°F 32.0°F 47% 29.82 in 10.0 miles NNW 6.9 mph - N/A   Mostly Cloudy
4:35 PM 51.8°F 33.8°F 50% 29.84 in 10.0 miles West 5.8 mph - N/A   Mostly Cloudy
4:55 PM 50.0°F 33.8°F 54% 29.85 in 10.0 miles WNW 5.8 mph - N/A   Mostly Cloudy
5:15 PM 50.0°F 33.8°F 54% 29.85 in 10.0 miles WNW 4.6 mph - N/A   Mostly Cloudy
5:35 PM 48.2°F 33.8°F 58% 29.86 in 10.0 miles WNW 3.5 mph - N/A   Overcast
5:55 PM 48.2°F 33.8°F 58% 29.87 in 10.0 miles NW 4.6 mph - N/A   Scattered Clouds
6:15 PM 46.4°F 33.8°F 62% 29.88 in 10.0 miles WNW 4.6 mph - N/A   Clear
6:35 PM 44.6°F 33.8°F 66% 29.89 in 10.0 miles WNW 3.5 mph - N/A   Clear
6:55 PM 44.6°F 33.8°F 66% 29.91 in 10.0 miles NW 5.8 mph - N/A   Partly Cloudy
7:15 PM 44.6°F 33.8°F 66% 29.91 in 10.0 miles NNE 4.6 mph - N/A   Partly Cloudy
7:55 PM 41.0°F 33.8°F 76% 29.93 in 10.0 miles Calm Calm - N/A   Clear
8:15 PM 39.2°F 33.8°F 81% 29.94 in 10.0 miles NNE 4.6 mph - N/A   Clear
8:35 PM 39.2°F 33.8°F 81% 29.95 in 10.0 miles NNE 4.6 mph - N/A   Clear
8:55 PM 39.2°F 33.8°F 81% 29.96 in 10.0 miles NNE 5.8 mph - N/A   Clear
9:15 PM 37.4°F 33.8°F 87% 29.96 in 10.0 miles Calm Calm - N/A   Clear
9:35 PM 35.6°F 32.0°F 87% 29.97 in 10.0 miles NNE 3.5 mph - N/A   Clear
10:15 PM 33.8°F 30.2°F 87% 29.99 in 10.0 miles Calm Calm - N/A   Clear
10:35 PM 33.8°F 30.2°F 87% 30.00 in 10.0 miles Calm Calm - N/A   Clear
10:55 PM 33.8°F 30.2°F 87% 30.00 in 10.0 miles Calm Calm - N/A   Clear
11:15 PM 32.0°F 28.4°F 87% 30.01 in 10.0 miles Calm Calm - N/A   Clear
11:35 PM 33.8°F 30.2°F 87% 30.01 in 10.0 miles Calm Calm - N/A   Clear
11:55 PM 33.8°F 28.4°F 81% 30.02 in 10.0 miles Calm Calm - N/A   Clear
Moon Phase
Feb. 19 Feb. 25 Mar. 04 Mar. 11 Mar. 19
Sunrise:07:07 AM (PST) Moon Rise:12:09 PM (PST)2/19
Sunset:05:44 PM (PST) Moon Set:02:54 AM (PST)2/19

Copyright © 2014 The Weather Underground, Inc.